Location: �couen
(49.0206°N, 2.3831°E)
Time: 10:53:23
(UTC+00:00)

Cosmos 2098 - Pass Details

Date: 05 June 2022
Orbit: 387 x 1577 km, 82.9° (Epoch: 30 June)

Event Time Altitude Azimuth Distance (km) Brightness Sun altitude
Rises 03:05:17 0° 336° (NNW) 2,291 8.3 -6.2°
Reaches altitude 10° 03:07:30 10° 319° (NW) 1,453 7.0 -5.9°
Maximum altitude 03:09:50 20° 269° (W) 1,035 5.8 -5.6°
Drops below altitude 10° 03:12:23 10° 219° (SW) 1,602 6.5 -5.3°
Enters shadow 03:13:28 - 210° (SSW) 1,999 7.1 -5.2°
